TSO101 ULLI-UUEE

Flight info

Callsign TSO101
Flight time N/A
Altitude 35000
Route K0865F350 SUGIN1C SUGIN T873 NIRGI T73 NAMIN NAMIN3F
Aircraft B77W/H-SDE1E2E3FGHIJ2J3J4J5M1RWXY/LB1D1

Departure

Time 2026-05-07 16:25
Airport Pulkovo Airport (ULLI)

Arrival

Time N/A
Airport Sheremetyevo International Airport (UUEE)
Time Latitude Longitude Altitude Speed Heading
2026-05-07 16:09 59.79666 30.25853 92 ft 0 kts 286°
2026-05-07 16:11 59.79665 30.25853 93 ft 0 kts 286°
2026-05-07 16:14 59.79663 30.25869 93 ft 2 kts 287°
2026-05-07 16:15 59.79659 30.25898 93 ft 2 kts 287°
2026-05-07 16:15 59.79654 30.25926 93 ft 2 kts 286°
2026-05-07 16:15 59.79651 30.25954 93 ft 2 kts 280°
2026-05-07 16:15 59.79649 30.25984 93 ft 2 kts 269°
2026-05-07 16:16 59.79651 30.26014 93 ft 2 kts 249°
2026-05-07 16:16 59.79657 30.26039 93 ft 2 kts 230°
2026-05-07 16:16 59.79668 30.26059 93 ft 2 kts 211°
2026-05-07 16:16 59.79682 30.26072 93 ft 2 kts 194°
2026-05-07 16:17 59.79696 30.26079 93 ft 1 kts 194°
2026-05-07 16:17 59.79699 30.26080 93 ft 0 kts 195°
2026-05-07 16:19 59.79686 30.26072 93 ft 4 kts 197°
2026-05-07 16:19 59.79646 30.26042 93 ft 8 kts 202°
2026-05-07 16:19 59.79591 30.25975 93 ft 10 kts 238°
2026-05-07 16:19 59.79583 30.25814 92 ft 13 kts 278°
2026-05-07 16:20 59.79607 30.25616 92 ft 16 kts 283°
2026-05-07 16:20 59.79642 30.25391 92 ft 18 kts 287°
2026-05-07 16:20 59.79679 30.25145 92 ft 13 kts 285°
2026-05-07 16:20 59.79708 30.24943 92 ft 16 kts 285°
2026-05-07 16:21 59.79742 30.24708 92 ft 18 kts 286°
2026-05-07 16:21 59.79781 30.24449 92 ft 20 kts 286°
2026-05-07 16:21 59.79823 30.24166 92 ft 22 kts 286°
2026-05-07 16:21 59.79868 30.23859 92 ft 24 kts 285°
2026-05-07 16:22 59.79917 30.23523 92 ft 25 kts 287°
2026-05-07 16:22 59.79969 30.23172 92 ft 21 kts 286°
2026-05-07 16:22 59.80013 30.22880 92 ft 23 kts 286°
2026-05-07 16:22 59.80059 30.22561 92 ft 25 kts 285°
2026-05-07 16:23 59.80103 30.22268 92 ft 11 kts 286°
2026-05-07 16:23 59.80106 30.22099 92 ft 13 kts 255°
2026-05-07 16:23 59.80047 30.21949 92 ft 15 kts 215°
2026-05-07 16:23 59.79969 30.22028 92 ft 16 kts 110°
2026-05-07 16:24 59.79967 30.22042 92 ft 0 kts 108°
2026-05-07 16:24 59.79932 30.22252 92 ft 48 kts 107°
2026-05-07 16:24 59.79768 30.23362 93 ft 116 kts 105°
2026-05-07 16:24 59.79488 30.25278 183 ft 164 kts 105°
2026-05-07 16:25 59.79151 30.27472 706 ft 174 kts 105°
2026-05-07 16:25 59.78790 30.29821 1474 ft 179 kts 103°
2026-05-07 16:25 59.78434 30.32246 1959 ft 191 kts 103°
2026-05-07 16:25 59.78049 30.34833 2450 ft 206 kts 103°
2026-05-07 16:26 59.77641 30.37620 3026 ft 217 kts 103°
2026-05-07 16:26 59.77203 30.40495 3768 ft 220 kts 103°
2026-05-07 16:26 59.76763 30.43372 4532 ft 222 kts 103°
2026-05-07 16:26 59.76475 30.45299 5040 ft 223 kts 103°
2026-05-07 16:27 59.75869 30.49383 5705 ft 241 kts 103°
2026-05-07 16:27 59.75363 30.52696 6149 ft 258 kts 103°
2026-05-07 16:27 59.74856 30.56102 6831 ft 263 kts 103°
2026-05-07 16:27 59.74369 30.59605 7533 ft 268 kts 102°
2026-05-07 16:28 59.73903 30.63192 8188 ft 275 kts 102°
2026-05-07 16:28 59.73416 30.66884 8837 ft 282 kts 103°
2026-05-07 16:28 59.72912 30.70655 9459 ft 288 kts 103°
2026-05-07 16:28 59.72400 30.74460 10175 ft 290 kts 104°
2026-05-07 16:29 59.71864 30.78438 10556 ft 307 kts 104°
2026-05-07 16:29 59.71303 30.82590 10880 ft 324 kts 104°
2026-05-07 16:29 59.70701 30.87031 11214 ft 342 kts 104°
2026-05-07 16:29 59.70070 30.91665 11590 ft 359 kts 105°
2026-05-07 16:30 59.69402 30.96564 11956 ft 376 kts 105°
2026-05-07 16:30 59.68708 31.01631 12437 ft 389 kts 105°
2026-05-07 16:30 59.67995 31.06825 13097 ft 398 kts 105°
2026-05-07 16:30 59.67270 31.12081 13827 ft 406 kts 106°
2026-05-07 16:31 59.66516 31.17535 14580 ft 414 kts 107°
2026-05-07 16:31 59.65751 31.23051 15434 ft 421 kts 107°
2026-05-07 16:31 59.64981 31.28580 16305 ft 427 kts 107°
2026-05-07 16:31 59.64191 31.34233 17097 ft 434 kts 108°
2026-05-07 16:32 59.63378 31.40027 17867 ft 442 kts 108°
2026-05-07 16:32 59.62555 31.45874 18666 ft 448 kts 108°
2026-05-07 16:32 59.61713 31.51833 19428 ft 455 kts 109°
2026-05-07 16:32 59.60857 31.57870 20188 ft 461 kts 109°
2026-05-07 16:33 59.59995 31.63932 20918 ft 468 kts 109°
2026-05-07 16:33 59.59108 31.70143 21659 ft 473 kts 110°
2026-05-07 16:33 59.58215 31.76370 22357 ft 478 kts 111°
2026-05-07 16:33 59.57299 31.82735 23031 ft 484 kts 111°
2026-05-07 16:34 59.56382 31.89076 23679 ft 489 kts 111°
2026-05-07 16:34 59.55452 31.95495 24386 ft 493 kts 111°
2026-05-07 16:34 59.54458 32.02031 25046 ft 494 kts 116°
2026-05-07 16:34 59.53087 32.08177 25627 ft 492 kts 125°
2026-05-07 16:35 59.51274 32.13771 26176 ft 488 kts 135°
2026-05-07 16:35 59.49075 32.18742 26825 ft 484 kts 142°
2026-05-07 16:35 59.46708 32.23497 27601 ft 485 kts 143°
2026-05-07 16:35 59.44354 32.28155 28354 ft 486 kts 143°
2026-05-07 16:36 59.41967 32.32846 28967 ft 491 kts 143°
2026-05-07 16:36 59.39542 32.37590 29648 ft 494 kts 143°
2026-05-07 16:36 59.37132 32.42293 30467 ft 494 kts 143°
2026-05-07 16:36 59.34675 32.47075 31433 ft 489 kts 143°
2026-05-07 16:37 59.32286 32.51708 32250 ft 486 kts 144°
2026-05-07 16:37 59.29864 32.56388 32921 ft 486 kts 144°
2026-05-07 16:37 59.27442 32.61055 33528 ft 486 kts 144°
2026-05-07 16:37 59.24988 32.65771 34155 ft 485 kts 145°
2026-05-07 16:38 59.22561 32.70428 34766 ft 484 kts 144°
2026-05-07 16:38 59.20111 32.75111 34945 ft 487 kts 144°
2026-05-07 16:38 59.17699 32.79715 34975 ft 485 kts 144°
2026-05-07 16:39 59.12868 32.88911 34982 ft 484 kts 144°
2026-05-07 16:39 59.08076 32.97992 34983 ft 484 kts 144°
2026-05-07 16:40 59.03247 33.07104 34977 ft 482 kts 144°
2026-05-07 16:40 58.98466 33.16088 34986 ft 481 kts 144°
2026-05-07 16:41 58.93652 33.25094 34971 ft 482 kts 144°
2026-05-07 16:41 58.88839 33.34064 34972 ft 483 kts 144°
2026-05-07 16:42 58.83997 33.43050 34972 ft 483 kts 144°
2026-05-07 16:42 58.79141 33.52023 34967 ft 486 kts 144°
2026-05-07 16:43 58.74258 33.61016 34962 ft 483 kts 144°
2026-05-07 16:43 58.69401 33.69916 34951 ft 486 kts 145°
2026-05-07 16:44 58.64542 33.78794 34943 ft 482 kts 146°
2026-05-07 16:44 58.59689 33.87619 34940 ft 482 kts 146°
2026-05-07 16:45 58.54852 33.96381 34940 ft 481 kts 145°
2026-05-07 16:45 58.49984 34.05161 34931 ft 481 kts 145°
2026-05-07 16:46 58.45108 34.13921 34930 ft 483 kts 145°
2026-05-07 16:46 58.40249 34.22619 34929 ft 482 kts 145°
2026-05-07 16:47 58.35356 34.31340 34934 ft 484 kts 145°
2026-05-07 16:47 58.30473 34.40010 34932 ft 483 kts 145°
2026-05-07 16:48 58.25583 34.48663 34928 ft 481 kts 145°
2026-05-07 16:48 58.20703 34.57256 34926 ft 482 kts 145°
2026-05-07 16:49 58.15661 34.65483 34924 ft 479 kts 149°
2026-05-07 16:49 58.10571 34.73477 34914 ft 475 kts 149°
2026-05-07 16:50 58.05472 34.81476 34910 ft 476 kts 149°
2026-05-07 16:50 58.00406 34.89416 34910 ft 478 kts 149°
2026-05-07 16:51 57.95299 34.97398 34904 ft 477 kts 148°
2026-05-07 16:51 57.90213 35.05325 34911 ft 477 kts 148°
2026-05-07 16:52 57.85117 35.13238 34929 ft 478 kts 148°
2026-05-07 16:52 57.80001 35.21153 34929 ft 478 kts 148°
2026-05-07 16:53 57.74887 35.29037 34920 ft 478 kts 148°
2026-05-07 16:53 57.69735 35.36949 34910 ft 480 kts 148°
2026-05-07 16:54 57.64596 35.44814 34914 ft 480 kts 148°
2026-05-07 16:54 57.59455 35.52652 34909 ft 478 kts 148°
2026-05-07 16:55 57.54337 35.60458 34879 ft 478 kts 148°
2026-05-07 16:55 57.51770 35.64369 34251 ft 476 kts 148°
2026-05-07 16:55 57.49178 35.68301 33192 ft 482 kts 148°
2026-05-07 16:55 57.46614 35.72184 32270 ft 485 kts 148°
2026-05-07 16:56 57.43984 35.76163 31405 ft 486 kts 147°
2026-05-07 16:56 57.41384 35.80089 30586 ft 485 kts 147°
2026-05-07 16:56 57.36247 35.87834 29644 ft 471 kts 147°
2026-05-07 16:57 57.33745 35.91593 29109 ft 466 kts 147°